NOAA 16 DEB, 42366

Orbit data source: Space-Track

NOAA 16 DEB, 42366 is space debris in SSO originally from a launch on Thu, 21 Sep 2000 UTC launched from the Air Force Western Test Range (AFWTR). Debris objects in space refer to the collection of defunct objects orbiting the Earth. Examples of debris include non-operational satellites, rocket bodies, and fragments generated from explosions, collisions, or faulty payload assembly.

Loading next visibility...
NOAA 16 DEB details
Identifier
42366, 2000-055RJ
Orbit
SSO
Last TLE update1 day ago
Origin
Flag of USNOAA (US)
ManufacturerUnknown
MissionSpacecraft
Bus & MotorUnknown
MassUnknown
Launch date (UTC)
2000-09-21 (24 years ago)
Launch vehicleUnknown
Launch site
Air Force Western Test Range (AFWTR)
Object type
Payload
Rocket body
Debris
Shape & HBRUnknown
Radar Cross SectionSmall (<0.1 m²)

Expand to show TLE details & history

TLE from 1 day ago
0 NOAA 16 DEB
1 42366U 00055RJ  24347.02760961  .00028182  00000-0  49013-2 0  9992
2 42366  98.8917 199.6132 0040875 106.1944 254.3762 14.67506046462735
Epoch: 2024-12-12T00:39Z
Definitive object data (Epoch: 2024-12-12T00:39:45.47Z)
Latitude
Longitude108.45991°
Altitude679.883 km
Speed7.513 km/s
True Right ascension13h 18m 27s
True Declination0° 00' 00"
Sunlit
Object was in daylight at TLE epoch
Visualization TLE readout
Latitude-26.0155°
Longitude-74.44847°
Altitude685.404 km
Speed7.509 km/s
Apparent Right ascension22h 37m 43s
Apparent Declination-41° 29' 13"
Sunlit
Object is in daylight
Visualization observer readout
Local Sidereal Time07:10:45
Azimuth250.314° W
Elevation-51.338°
Doppler factor1
Orbital elements
Apogee altitude694.939 km
Perigee altitude637.352 km
Semi-major axis7,044.282 km
Eccentricity0.0040875
Inclination98.8917°
RAAN199.6132°
Arg. of periapsis106.1944°
True anomaly253.92574°
Mean anomaly254.3762°
Eccentric anomaly254.15091°
Mean motion3.67103 °/min
BSTAR0.0049013
Orbital period98.07 mins
Loading maneuver chart data...
Loading historical data...
Loading historical data...
Loading historical data...
Loading historical data...
Loading historical data...
Loading historical data...
Loading historical data...

NOAA 16 DEB Visibility forecast

Observer location: undefined°, undefined

Span
Click to sort rows by Start time (UTC) header in descending order
Start Az.
Max El. time (UTC)
Max El. Az.
Max El.
End time (UTC)
End Az.
8 mins2024-12-13 14:25:07.217Z168.782° S2024-12-13 14:29:07.217Z308.268° NW44.2°2024-12-13 14:33:07.217Z344.156° N
4 mins2024-12-14 02:22:07.217Z71.127° E2024-12-14 02:23:07.217Z88.216° E18.22°2024-12-14 02:26:07.217Z135.598° SSE
6 mins2024-12-14 03:58:07.217Z344.319° N2024-12-14 04:00:07.217Z304.368° NW30.17°2024-12-14 04:04:07.217Z226.738° WSW
|